This is the latest recevied weather packets stored in our database for station/object DC9VQ-13. If no packets are shown the sender has not sent any weather packets the latest 10 day(s).
| Time | Temp. | Humidity | Pressure | Rain* | Wind** | Luminosity | Snow |
|---|---|---|---|---|---|---|---|
| 1777740693 | 30.56° C | 32% | 1016.1 hPa | 0 mm | - | - | - |
| 1777740090 | 30.56° C | 33% | 1016.1 hPa | 0 mm | - | - | - |
| 1777739489 | 31.11° C | 33% | 1016.3 hPa | 0 mm | - | - | - |
| 1777738885 | 31.11° C | 33% | 1016.5 hPa | 0 mm | - | - | - |
| 1777738284 | 30.56° C | 34% | 1016.6 hPa | 0 mm | - | - | - |
| 1777737682 | 30.56° C | 31% | 1016.6 hPa | 0 mm | - | - | - |
| 1777737081 | 30.56° C | 33% | 1016.8 hPa | 0 mm | - | - | - |
| 1777736478 | 30.56° C | 33% | 1016.9 hPa | 0 mm | - | - | - |
| 1777735877 | 30° C | 33% | 1017 hPa | 0 mm | - | - | - |
| 1777735275 | 30° C | 33% | 1017.1 hPa | 0 mm | - | - | - |
| 1777734673 | 29.44° C | 32% | 1017.4 hPa | 0 mm | - | - | - |
| 1777734069 | 29.44° C | 32% | 1017.6 hPa | 0 mm | - | - | - |
| 1777733468 | 28.89° C | 31% | 1017.8 hPa | 0 mm | - | - | - |
| 1777732868 | 28.33° C | 36% | 1018 hPa | 0 mm | - | - | - |
| 1777732264 | 27.78° C | 36% | 1018.1 hPa | 0 mm | - | - | - |
| 1777731662 | 27.22° C | 37% | 1018.2 hPa | 0 mm | - | - | - |
| 1777731060 | 27.22° C | 37% | 1018.3 hPa | 0 mm | - | - | - |
| 1777730459 | 26.67° C | 37% | 1018.4 hPa | 0 mm | - | - | - |
| 1777729856 | 26.11° C | 37% | 1018.5 hPa | 0 mm | - | - | - |
| 1777728652 | 25.56° C | 39% | 1018.7 hPa | 0 mm | - | - | - |
| 1777728050 | 25° C | 39% | 1018.8 hPa | 0 mm | - | - | - |
| 1777727448 | 25° C | 39% | 1019 hPa | 0 mm | - | - | - |
| 1777726848 | 24.44° C | 39% | 1019.2 hPa | 0 mm | - | - | - |
| 1777726244 | 24.44° C | 40% | 1019.3 hPa | 0 mm | - | - | - |
| 1777725642 | 23.89° C | 39% | 1019.3 hPa | 0 mm | - | - | - |
* Rain latest hour (hover to see other rain measurements)
** Current wind speed in m/s (hover to see current wind gust speed)